EW9436 Weather Reports


time (UTC)temp
C
wind
direction
speed
KPH
gust
KPH
rain 1hr
cm
rain 24hr
cm
rain mn
cm
humidity
%
barometer
mb
20260507070231 11 185 6.4 11.3 0.00 0.20 0.03 94 1012.9
20260507065229 11 180 3.2 9.7 0.00 0.20 0.03 94 1013.0
20260507065130 11 180 4.8 9.7 0.00 0.20 0.03 94 1013.0
20260507064130 11 180 4.8 6.4 0.00 0.20 0.03 95 1012.8
20260507064030 11 180 6.4 11.3 0.00 0.20 0.03 95 1012.8
20260507063931 11 180 4.8 8.0 0.00 0.20 0.03 95 1012.8
20260507063030 11 186 4.8 8.0 0.00 0.20 0.03 94 1012.8
20260507062129 11 180 3.2 8.0 0.03 0.20 0.03 95 1013.0
20260507062030 11 180 1.6 9.7 0.03 0.20 0.03 95 1013.1
20260507061030 11 180 4.8 6.4 0.03 0.20 0.03 94 1013.3
20260507060128 11 210 3.2 9.7 0.03 0.20 0.03 94 1013.4
20260507054129 11 181 6.4 14.5 0.03 0.20 0.03 95 1013.8
20260507052028 11 205 6.4 14.5 0.00 0.18 0.00 94 1014.0
20260507051031 11 202 8.0 16.1 0.00 0.18 0.00 95 1014.1
20260507050032 11 212 8.0 12.9 0.00 0.18 0.00 95 1014.4
20260507045128 11 228 3.2 8.0 0.00 0.18 0.00 94 1014.3
20260507045028 11 202 8.0 17.7 0.00 0.18 0.00 95 1014.2
20260507044030 11 205 6.4 12.9 0.00 0.18 0.00 93 1014.3
20260507043930 11 214 6.4 14.5 0.00 0.18 0.00 93 1014.2
20260507043831 11 227 3.2 9.7 0.00 0.18 0.00 94 1014.1
20260507042930 11 226 6.4 12.9 0.00 0.18 0.00 93 1014.4
20260507042830 11 200 4.8 11.3 0.00 0.18 0.00 94 1014.4
20260507041929 11 196 4.8 12.9 0.00 0.18 0.00 94 1014.3
20260507040027 11 210 6.4 22.5 0.00 0.18 0.00 93 1014.7
20260507035020 11 214 6.4 12.9 0.00 0.18 0.18 94 1014.4
20260507034023 11 234 9.7 17.7 0.00 0.18 0.18 94 1014.7
20260507033924 11 209 6.4 17.7 0.00 0.18 0.18 94 1014.7
20260507032922 12 211 9.7 22.5 0.00 0.18 0.18 94 1014.8
20260507031923 12 200 9.7 17.7 0.00 0.18 0.18 93 1014.4
20260507031823 12 212 4.8 17.7 0.00 0.18 0.18 94 1014.3
20260507030822 12 184 6.4 14.5 0.00 0.18 0.18 94 1014.5
20260507025921 12 215 4.8 11.3 0.00 0.18 0.18 94 1014.4
20260507023923 12 188 9.7 17.7 0.00 0.18 0.18 92 1014.6
20260507023820 12 186 8.0 14.5 0.00 0.18 0.18 92 1014.6
20260507022824 12 196 8.0 12.9 0.00 0.18 0.18 92 1014.9
20260507021920 12 190 8.0 17.7 0.00 0.18 0.18 93 1014.7
20260507020921 12 188 8.0 14.5 0.00 0.18 0.18 93 1015.0
20260507020823 12 202 6.4 12.9 0.00 0.18 0.18 92 1015.1
20260507015822 12 221 6.4 16.1 0.00 0.18 0.18 93 1015.2
20260507014920 12 215 8.0 19.3 0.00 0.18 0.18 93 1015.2
20260507014822 12 205 4.8 11.3 0.00 0.18 0.18 93 1015.2
20260507013820 12 223 9.7 17.7 0.00 0.18 0.18 93 1015.5
20260507012821 12 229 8.0 14.5 0.00 0.18 0.18 92 1015.6
20260507012723 12 236 6.4 14.5 0.00 0.18 0.18 93 1015.6
20260507011821 12 206 8.0 17.7 0.00 0.18 0.18 92 1015.5
20260507005920 13 218 11.3 20.9 0.00 0.18 0.18 93 1015.4
20260507004921 13 216 11.3 17.7 0.03 0.18 0.18 93 1015.3
20260507004821 13 213 9.7 16.1 0.03 0.18 0.18 93 1015.4
20260507003824 13 195 8.0 22.5 0.03 0.18 0.18 93 1015.3
20260507002823 13 190 11.3 16.1 0.08 0.18 0.18 93 1015.1
20260507002724 13 186 4.8 14.5 0.08 0.18 0.18 93 1015.1
20260507001820 13 194 11.3 22.5 0.10 0.18 0.18 93 1015.3
20260507001721 13 175 14.5 27.4 0.10 0.18 0.18 93 1015.3
20260507000820 13 203 9.7 27.4 0.13 0.18 0.18 93 1015.2
20260507000722 13 185 16.1 22.5 0.13 0.18 0.18 93 1015.2
20260506234721 13 186 14.5 30.6 0.13 0.15 0.15 93 1015.0
20260506234620 13 182 16.1 29.0 0.13 0.15 0.15 93 1015.0
20260506232621 13 173 17.7 32.2 0.10 0.10 0.10 92 1014.8
20260506232522 13 175 16.1 29.0 0.10 0.10 0.10 92 1014.8
20260506231523 13 174 17.7 29.0 0.08 0.08 0.08 91 1015.1
20260506231421 13 166 16.1 27.4 0.08 0.08 0.08 90 1015.2
20260506230520 13 166 16.1 27.4 0.05 0.05 0.05 91 1015.4
20260506230321 13 173 17.7 29.0 0.05 0.05 0.05 90 1015.3
20260506225321 13 176 14.5 24.1 0.03 0.03 0.03 89 1015.4
20260506224322 13 171 16.1 24.1 0.00 0.00 0.00 88 1015.6
20260506223421 13 185 17.7 29.0 0.00 0.00 0.00 86 1015.6
20260506223322 13 193 9.7 17.7 0.00 0.00 0.00 86 1015.6
20260506222322 13 196 16.1 24.1 0.00 0.00 0.00 84 1015.8
20260506222223 13 188 20.9 38.6 0.00 0.00 0.00 84 1015.7
20260506220223 14 192 17.7 30.6 0.00 0.00 0.00 81 1015.4
20260506215320 15 179 19.3 27.4 0.00 0.00 0.00 81 1015.5
20260506215223 15 176 12.9 25.7 0.00 0.00 0.00 81 1015.5
20260506214221 14 175 12.9 25.7 0.00 0.00 0.00 81 1015.6
20260506214120 14 171 16.1 24.1 0.00 0.00 0.00 81 1015.6
20260506214020 14 171 16.1 32.2 0.00 0.00 0.00 81 1015.6
20260506213022 14 177 19.3 33.8 0.00 0.00 0.00 81 1015.7
20260506212922 14 168 16.1 33.8 0.00 0.00 0.00 81 1015.7
20260506211922 15 184 17.7 27.4 0.00 0.00 0.00 79 1016.1
20260506211820 15 167 12.9 29.0 0.00 0.00 0.00 79 1016.1
20260506211724 15 177 16.1 29.0 0.00 0.00 0.00 80 1016.0
20260506210723 15 188 16.1 25.7 0.00 0.00 0.00 80 1015.9
20260506205821 15 175 14.5 27.4 0.00 0.00 0.00 79 1016.0
20260506204824 15 183 19.3 32.2 0.00 0.00 0.00 79 1016.0
20260506203922 15 175 17.7 33.8 0.00 0.00 0.00 80 1016.0
20260506203821 15 178 11.3 25.7 0.00 0.00 0.00 80 1016.1
20260506202821 15 180 17.7 27.4 0.00 0.00 0.00 78 1016.4
20260506200823 15 177 12.9 24.1 0.00 0.00 0.00 79 1016.4
20260506195920 15 190 11.3 22.5 0.00 0.00 0.00 78 1016.5
20260506194921 15 173 17.7 29.0 0.00 0.00 0.00 78 1016.6
20260506193924 15 189 14.5 32.2 0.00 0.00 0.00 78 1016.9
20260506192920 15 168 16.1 33.8 0.00 0.00 0.00 78 1016.9
20260506191823 15 176 17.7 27.4 0.00 0.00 0.00 77 1016.9
20260506190820 15 173 20.9 32.2 0.00 0.00 0.00 76 1017.0
20260506185823 15 182 12.9 24.1 0.00 0.00 0.00 77 1016.9
20260506185723 15 182 12.9 22.5 0.00 0.00 0.00 77 1017.0
20260506183823 15 171 20.9 32.2 0.00 0.00 0.00 77 1017.3
20260506182821 15 169 14.5 27.4 0.00 0.00 0.00 76 1017.5
20260506182721 15 187 20.9 37.0 0.00 0.00 0.00 76 1017.5
20260506182622 15 187 16.1 29.0 0.00 0.00 0.00 76 1017.5
20260506181620 15 178 16.1 33.8 0.00 0.00 0.00 74 1017.9
20260506181523 15 180 20.9 33.8 0.00 0.00 0.00 75 1017.8
20260506180521 16 182 14.5 29.0 0.00 0.00 0.00 74 1017.9
20260506175522 16 195 11.3 17.7 0.00 0.00 0.00 74 1018.2
20260506174522 16 178 19.3 32.2 0.00 0.00 0.00 73 1018.3
20260506174422 16 192 19.3 35.4 0.00 0.00 0.00 72 1018.3
20260506173422 16 176 19.3 37.0 0.00 0.00 0.00 74 1018.1
20260506171523 16 185 16.1 33.8 0.00 0.00 0.00 75 1018.2
20260506171420 16 185 16.1 29.0 0.00 0.00 0.00 75 1018.3
20260506170423 16 190 14.5 22.5 0.00 0.00 0.00 74 1018.5
20260506165421 16 172 20.9 29.0 0.00 0.00 0.00 75 1018.7
20260506164420 16 178 16.1 35.4 0.00 0.00 0.00 74 1018.8
20260506163422 16 208 16.1 27.4 0.00 0.00 0.00 73 1019.0
20260506162423 16 216 3.2 9.7 0.00 0.00 0.00 73 1019.3
20260506162321 17 212 4.8 9.7 0.00 0.00 0.00 73 1019.3
20260506161320 16 192 8.0 12.9 0.00 0.00 0.00 73 1019.3
20260506160322 16 192 12.9 22.5 0.00 0.00 0.00 73 1019.4
20260506155321 16 198 11.3 17.7 0.00 0.00 0.00 73 1019.5
20260506154421 16 199 14.5 24.1 0.00 0.00 0.00 73 1019.7
20260506153419 16 195 16.1 27.4 0.00 0.00 0.00 74 1019.8
20260506153323 16 191 14.5 33.8 0.00 0.00 0.00 75 1019.7
20260506152420 16 181 9.7 19.3 0.00 0.00 0.00 73 1019.9
20260506150422 15 191 9.7 14.5 0.00 0.00 0.00 76 1020.0
20260506145422 15 231 17.7 27.4 0.00 0.00 0.00 76 1020.0
20260506144422 15 214 8.0 12.9 0.00 0.00 0.00 76 1020.0
20260506143421 15 186 6.4 11.3 0.00 0.00 0.00 76 1019.8
20260506142423 15 175 11.3 20.9 0.00 0.00 0.00 76 1019.6
20260506141420 15 192 9.7 24.1 0.00 0.00 0.00 75 1019.9
20260506140323 16 211 6.4 19.3 0.00 0.00 0.00 75 1020.1
20260506135323 16 211 11.3 22.5 0.00 0.00 0.00 75 1020.0
20260506134320 16 206 8.0 14.5 0.00 0.00 0.00 75 1019.9
20260506133322 16 183 12.9 22.5 0.00 0.00 0.00 75 1020.0
20260506132421 16 190 9.7 19.3 0.00 0.00 0.00 74 1019.9
20260506132322 16 210 12.9 20.9 0.00 0.00 0.00 74 1019.8
20260506130321 15 183 6.4 12.9 0.00 0.00 0.00 78 1020.0
20260506125421 15 232 4.8 11.3 0.00 0.00 0.00 78 1020.1
20260506124323 15 199 4.8 11.3 0.00 0.00 0.00 78 1020.1
20260506122323 14 184 6.4 12.9 0.00 0.00 0.00 81 1020.1
20260506121419 13 184 11.3 16.1 0.00 0.00 0.00 82 1020.1
20260506121321 13 189 6.4 14.5 0.00 0.00 0.00 82 1020.2
20260506120322 13 204 9.7 16.1 0.00 0.00 0.00 83 1020.4
20260506120220 13 199 8.0 14.5 0.00 0.00 0.00 83 1020.4
20260506115223 13 191 11.3 22.5 0.00 0.00 0.00 85 1020.4
20260506113319 13 189 9.7 17.7 0.00 0.00 0.00 83 1020.3
20260506113220 13 194 12.9 22.5 0.00 0.00 0.00 84 1020.3
20260506112238 13 191 12.9 24.1 0.00 0.00 0.00 84 1020.2
20260506111320 13 181 14.5 29.0 0.00 0.00 0.00 84 1020.3
20260506110222 13 189 8.0 16.1 0.00 0.00 0.00 85 1020.3
20260506105221 12 183 9.7 19.3 0.00 0.00 0.00 87 1020.3
20260506103320 12 196 9.7 19.3 0.00 0.00 0.00 89 1020.2
20260506102321 12 169 11.3 20.9 0.00 0.00 0.00 90 1020.2
20260506101419 12 194 6.4 11.3 0.00 0.00 0.00 90 1020.0
20260506100423 12 174 12.9 19.3 0.00 0.00 0.00 91 1020.1
20260506100321 12 177 12.9 22.5 0.00 0.00 0.00 90 1020.1
20260506095320 12 180 9.7 17.7 0.00 0.00 0.00 90 1020.1
20260506094324 12 168 6.4 14.5 0.00 0.00 0.00 91 1020.1
20260506094221 12 185 9.7 20.9 0.00 0.00 0.00 91 1020.2
20260506093321 12 174 11.3 14.5 0.00 0.00 0.00 91 1020.1
20260506093220 12 181 12.9 19.3 0.00 0.00 0.00 90 1020.2
20260506092319 12 179 9.7 17.7 0.00 0.00 0.00 91 1020.3
20260506092221 12 191 9.7 14.5 0.00 0.00 0.00 90 1020.3
20260506091319 12 183 6.4 11.3 0.00 0.00 0.00 90 1020.4
20260506085321 12 176 11.3 16.1 0.00 0.00 0.00 91 1020.2
20260506084319 12 183 6.4 14.5 0.00 0.00 0.00 90 1020.3
20260506083320 12 197 8.0 12.9 0.00 0.00 0.00 91 1020.4
20260506083220 12 182 8.0 12.9 0.00 0.00 0.00 90 1020.3
20260506083119 12 199 3.2 6.4 0.00 0.00 0.00 90 1020.3
20260506082122 12 179 3.2 9.7 0.00 0.00 0.00 90 1020.4
20260506082019 12 184 4.8 11.3 0.00 0.00 0.00 91 1020.5
20260506081022 12 203 4.8 9.7 0.00 0.00 0.00 91 1020.4
20260506073021 12 183 8.0 12.9 0.00 0.00 0.00 90 1020.3
20260506072019 12 185 6.4 17.7 0.00 0.00 0.00 91 1020.2
20260506071924 12 190 11.3 20.9 0.00 0.00 0.00 91 1020.2
20260506071021 12 177 8.0 17.7 0.00 0.00 0.00 91 1020.2